SCOUT X-1 R/B, 82

Orbit data source: Space-Track

SCOUT X-1 R/B, 82 is space debris in LEO originally from a launch on Thu, 16 Feb 1961 UTC launched from the Wallops Island (WLPIS). Debris objects in space refer to the collection of defunct objects orbiting the Earth. Examples of debris include non-operational satellites, rocket bodies, and fragments generated from explosions, collisions, or faulty payload assembly.

Loading next visibility...
Identifier
82, 1961-004B
Orbit
LEO
Country
Flag of USUS
Related business
Manufacturer
ABL
Mission
Spacecraft
Bus & Motor
ALTAIR, Unknown motor
Mass
53 kg wet, 24 kg dry
Launch date (UTC)
1961-02-16 (65 years ago)
Launch vehicle
Unknown
Launch site
Wallops Island (WLPIS)
Object type
Payload
Rocket body
Debris
Shape & HBR
Cyl, 0.8 m
Radar Cross Section
0.687 m², Medium (>0.1 m² and < 1m²)

Expand to show TLE details & history
Last TLE update: 7 hours ago

TLE from 7 hours ago
0 SCOUT X-1 R/B
1 00082U 61004B   25258.21633693  .00000307  00000-0  28396-3 0  9997
2 00082  38.8598 301.0592 1168016 334.9802  19.8380 12.27721019 43003
Epoch: 2025-09-15T05:11Z
TLE epoch observation values (Epoch: 2025-09-15T05:11:31.51Z)
Latitude
0.00002°
Longitude
-131.24624°
Altitude
701.433 km
Speed
7.901 km/s
True Right ascension
20h 04m 14s
True Declination
0° 00' 00"
Sunlit
Object was in full shadow at epoch
Visualization orbit readout
Latitude
Unknown
Longitude
Unknown
Altitude
Unknown
Speed
Unknown
Apparent Right ascension
Unknown
Apparent Declination
Unknown
Sunlit
N/A
Visualization observer readout
Local Sidereal Time
04:50:04
Azimuth
Unknown
Elevation
Unknown
Doppler factor
Unknown
Orbital elements
Apogee altitude
2,488.766 km
Perigee altitude
634.061 km
Semi-major axis
7,939.55 km
Eccentricity
0.1168
Inclination
38.8598°
RAAN
301.0592°
Arg. of periapsis
334.9802°
True anomaly
25.09034°
Mean anomaly
19.838°
Eccentric anomaly
22.38679°
Mean motion
3.06796 °/min
Orbital period
117.34 mins
BSTAR
0.00028396
Loading maneuver chart data...
Computing Atmospheric mass density...
Loading historical data...
Loading historical data...
Loading historical data...
Loading historical data...
Loading historical data...
Loading historical data...
Loading historical data...

Documentation

Showing up to 5 results
|